Change the Weather History Date:

Tuesday, October 22, 2013

  Actual Average Record
Temperature  
Mean Temperature 68 °F -  
Max Temperature 77 °F 64 °F 80 °F (2012)
Min Temperature 59 °F 46 °F 42 °F (2007)
Cooling Degree Days 3    
Growing Degree Days 18 (Base 50)    
Moisture  
Dew Point 63 °F    
Average Humidity 87    
Maximum Humidity 100    
Minimum Humidity 57    
Precipitation  
Precipitation 0.00 in 0.16 in - ()
Sea Level Pressure  
Sea Level Pressure 30.17 in    
Wind  
Wind Speed 3 mph ()    
Max Wind Speed 10 mph    
Max Gust Speed -    
Visibility 6.2 miles    
Events      
Averages and records for this station are not official NWS values.
T = Trace of Precipitation, MM = Missing Value Source: Averaged Metar Reports

Daily Weather History Graph

Daily Weather History Graph

Search for Another Location

Airport or City:

Trip Planner

Search our weather history database for the weather conditions in past years. The results will help you decide how hot, cold, wet, or windy it might be!

Date:

Astronomy

Oct. 22, 2013 Rise Set
Actual Time 7:29 AM CEST 6:17 PM CEST
Civil Twilight 7:01 AM CEST 6:45 PM CEST
Nautical Twilight 6:29 AM CEST 7:18 PM CEST
Astronomical Twilight 5:56 AM CEST 7:50 PM CEST
Moon 8:41 PM CEST (10/22) 10:45 AM CEST (10/22)
Length of Visible Light 11h 44m
Length of Day
10h 47m
Waning Gibbous, 88% of the Moon is Illuminated
Oct 22
Waning Gibbous
Oct 27
Last Quarter
Nov 3
New
Nov 10
First Quarter
Nov 17
Full

Hourly Weather History & Observations

Time (CEST) Temp. Dew Point Humidity Pressure Visibility Wind Dir Wind Speed Gust Speed Precip Events Conditions
12:15 AM 64.4 °F 62.6 °F 94% 30.21 in - ESE 1.2 mph - N/A   Clear
12:45 AM 64.4 °F 62.6 °F 94% 30.21 in 6.2 mi ESE 5.8 mph - N/A   Partly Cloudy
1:15 AM 62.6 °F 62.6 °F 100% 30.21 in 6.2 mi ESE 6.9 mph - N/A   Partly Cloudy
1:45 AM 62.6 °F 62.6 °F 100% 30.21 in 6.2 mi SE 2.3 mph - N/A   Partly Cloudy
2:15 AM 62.6 °F 62.6 °F 100% 30.21 in - ESE 5.8 mph - N/A   Clear
2:45 AM 62.6 °F 59.0 °F 88% 30.21 in - Calm Calm - N/A   Clear
3:15 AM 62.6 °F 59.0 °F 88% 30.21 in - Calm Calm - N/A   Clear
3:45 AM 62.6 °F 60.8 °F 94% 30.18 in - Calm Calm - N/A   Clear
4:15 AM 62.6 °F 59.0 °F 88% 30.18 in - Calm Calm - N/A   Clear
4:45 AM 60.8 °F 57.2 °F 88% 30.18 in 6.2 mi Calm Calm - N/A   Partly Cloudy
5:15 AM 60.8 °F 59.0 °F 94% 30.18 in 6.2 mi Calm Calm - N/A   Partly Cloudy
5:45 AM 59.0 °F 59.0 °F 100% 30.18 in 6.2 mi NE 1.2 mph - N/A   Scattered Clouds
6:15 AM 59.0 °F 59.0 °F 100% 30.18 in 6.2 mi NE 1.2 mph - N/A   Scattered Clouds
6:45 AM 59.0 °F 59.0 °F 100% 30.18 in 6.2 mi Calm Calm - N/A   Scattered Clouds
7:15 AM 60.8 °F 59.0 °F 94% 30.18 in 6.2 mi Calm Calm - N/A   Mostly Cloudy
7:45 AM 62.6 °F 60.8 °F 94% 30.18 in 6.2 mi Calm Calm - N/A   Mostly Cloudy
8:15 AM 62.6 °F 60.8 °F 94% 30.18 in 6.2 mi Calm Calm - N/A   Scattered Clouds
8:45 AM 62.6 °F 60.8 °F 94% 30.18 in 6.2 mi Calm Calm - N/A   Scattered Clouds
9:15 AM 62.6 °F 62.6 °F 100% 30.18 in 6.2 mi Calm Calm - N/A   Scattered Clouds
9:45 AM 64.4 °F 62.6 °F 94% 30.18 in 6.2 mi NNE 1.2 mph - N/A   Partly Cloudy
10:15 AM 68.0 °F 62.6 °F 83% 30.18 in 6.2 mi NE 1.2 mph - N/A   Partly Cloudy
10:45 AM 68.0 °F 60.8 °F 78% 30.18 in 6.2 mi NNW 1.2 mph - N/A   Partly Cloudy
11:15 AM 69.8 °F 60.8 °F 73% 30.18 in 6.2 mi North 1.2 mph - N/A   Partly Cloudy
11:45 AM 73.4 °F 62.6 °F 69% 30.18 in 6.2 mi NE 2.3 mph - N/A   Partly Cloudy
12:15 PM 75.2 °F 62.6 °F 65% 30.18 in 6.2 mi North 3.5 mph - N/A   Partly Cloudy
12:45 PM 77.0 °F 64.4 °F 65% 30.18 in 6.2 mi West 4.6 mph - N/A   Partly Cloudy
1:15 PM 77.0 °F 60.8 °F 57% 30.18 in - SSW 8.1 mph - N/A   Clear
1:45 PM 77.0 °F 62.6 °F 61% 30.18 in - SSW 6.9 mph - N/A   Clear
2:15 PM 77.0 °F 64.4 °F 65% 30.15 in 6.2 mi SSW 6.9 mph - N/A   Partly Cloudy
2:45 PM 77.0 °F 64.4 °F 65% 30.15 in - South 8.1 mph - N/A   Clear
3:15 PM 77.0 °F 64.4 °F 65% 30.15 in - South 8.1 mph - N/A   Clear
3:45 PM 77.0 °F 64.4 °F 65% 30.12 in - South 8.1 mph - N/A   Clear
4:15 PM 75.2 °F 62.6 °F 65% 30.12 in - SSW 9.2 mph - N/A   Clear
4:45 PM 75.2 °F 68.0 °F 78% 30.12 in - SSW 5.8 mph - N/A   Clear
5:15 PM 73.4 °F 66.2 °F 78% 30.12 in - SW 5.8 mph - N/A   Clear
5:45 PM 71.6 °F 66.2 °F 83% 30.12 in - SW 5.8 mph - N/A   Clear
6:15 PM 71.6 °F 68.0 °F 88% 30.12 in - SSW 8.1 mph - N/A   Clear
6:45 PM 69.8 °F 66.2 °F 88% 30.12 in - South 10.4 mph - N/A   Clear
7:15 PM 68.0 °F 66.2 °F 94% 30.12 in - South 9.2 mph - N/A   Clear
7:45 PM 68.0 °F 66.2 °F 94% 30.12 in - South 8.1 mph - N/A   Clear
8:15 PM 68.0 °F 66.2 °F 94% 30.15 in - South 5.8 mph - N/A   Clear
8:45 PM 66.2 °F 66.2 °F 100% 30.15 in - SSE 2.3 mph - N/A   Clear
9:15 PM 66.2 °F 66.2 °F 100% 30.15 in - South 4.6 mph - N/A   Clear
9:45 PM 64.4 °F 64.4 °F 100% 30.15 in - ESE 3.5 mph - N/A   Clear
10:15 PM 64.4 °F 64.4 °F 100% 30.18 in - ESE 4.6 mph - N/A   Clear
10:45 PM 62.6 °F 62.6 °F 100% 30.18 in - East 4.6 mph - N/A   Clear
11:15 PM 62.6 °F 62.6 °F 100% 30.18 in - ESE 1.2 mph - N/A   Clear
11:45 PM 62.6 °F 59.0 °F 88% 30.15 in - ESE 2.3 mph - N/A   Clear